Location: Praha
(50.0830°N, 14.4670°E)
Time: 08:19:19
(UTC+01:00)

ISS - Pass Details

Date: 06 February 2019
Orbit: 403 x 411 km, 51.6° (Epoch: 17 February)

Event Time Altitude Azimuth Distance (km) Brightness Sun altitude
Rises 19:28:53 0° 284° (WNW) 2,338 1.4 -23.5°
Reaches altitude 10° 19:31:22 10° 265° (W) 1,475 0.1 -23.9°
Maximum altitude 19:33:45 19° 219° (SW) 1,063 -1.4 -24.2°
Enters shadow 19:33:57 18° 214° (SW) 1,066 -1.4 -24.3°
